This demonstration page uses our WeatherBlox Daily Observations layout. Learn more.

Left ArrowRight Arrow

41.55636, -103.73856

Hourly Observations for March 8, 2021

Temp ( °F °C ) Dew Point ( °F °C ) Humidity (%) Winds ( mph kmh ) Pressure ( in mb ) Visibility ( mi km ) Precip ( " mm )
12:58 am 00:58 Clear 36 2.1 20 -6.6 53 53 S 15 24 30.04 1017 10 16 0.00 0.00
1:58 am 01:58 Partly Cloudy 36 2.2 21 -6 55 55 SSW 13 20 30.01 1016 10 16 0.00 0.00
2:58 am 02:58 Clear 35 1.6 21 -6.2 57 57 SW 13 20 29.99 1016 10 16 0.00 0.00
3:58 am 03:58 Clear 39 3.9 20 -6.6 47 47 SW 14 22 29.97 1015 10 16 0.00 0.00
4:58 am 04:58 Partly Cloudy 39 4.1 20 -6.8 45 45 W 7 11 29.99 1016 10 16 0.00 0.00
5:58 am 05:58 Mostly Cloudy 41 5.1 20 -6.8 42 42 W 9 15 30.01 1016 10 16 0.00 0.00
6:58 am 06:58 Mostly Sunny 46 7.8 18 -7.7 33 33 WSW 6 9 29.99 1016 10 16 0.00 0.00
7:58 am 07:58 Mostly Cloudy 45 7.2 21 -6.3 38 38 W 7 11 30.04 1017 10 16 0.00 0.00
8:58 am 08:58 Sunny 51 10.4 21 -6 31 31 SSE 6 9 30.02 1017 10 16 0.00 0.00
9:58 am 09:58 Partly Cloudy 54 12 21 -6.2 28 28 S 7 11 29.98 1015 10 16 0.00 0.00
10:58 am 10:58 Mostly Sunny 57 13.8 22 -5.6 26 26 S 8 13 29.99 1016 10 16 0.00 0.00
11:58 am 11:58 Sunny 63 17.4 19 -7 18 18 SSE 7 11 29.92 1013 10 16 0.00 0.00
12:58 pm 12:58 Sunny 64 17.8 15 -9.7 14 14 SSE 12 19 29.88 1012 10 16 0.00 0.00
1:58 pm 13:58 Sunny 63 17.1 19 -7.5 18 18 SSE 7 11 29.86 1011 10 16 0.00 0.00
2:58 pm 14:58 Sunny 63 17.4 16 -9 16 16 S 7 11 29.87 1012 10 16 0.00 0.00
3:58 pm 15:58 Sunny 65 18.2 15 -9.7 14 14 SW 5 7 29.83 1010 10 16 0.00 0.00
4:58 pm 16:58 Sunny 63 17 16 -8.7 16 16 Calm 29.81 1010 10 16 0.00 0.00
5:58 pm 17:58 Clear 55 12.8 20 -6.7 25 25 S 5 7 29.84 1011 10 16 0.00 0.00
6:58 pm 18:58 Clear 55 12.8 18 -7.8 23 23 Calm 29.84 1011 10 16 0.00 0.00
7:58 pm 19:58 Clear 49 9.2 22 -5.4 36 36 W 15 24 29.88 1012 10 16 0.00 0.00
8:58 pm 20:58 Clear 46 7.8 24 -4.5 42 42 W 16 26 29.86 1011 10 16 0.00 0.00
9:58 pm 21:58 Mostly Clear 46 7.6 22 -5.6 39 39 W 13 20 29.84 1011 10 16 0.00 0.00
10:58 pm 22:58 Clear 45 7.4 21 -5.9 39 39 W 14 22 29.82 1010 10 16 0.00 0.00
11:58 pm 23:58 Mostly Clear 46 7.5 20 -6.9 36 36 W 16 26 29.77 1008 10 16 0.00 0.00

Powered by AerisWeather